| time (UTC) | temp F | wind direction | speed MPH | gust MPH | rain 1hr in | rain 24hr in | rain mn in | humidity % | barometer mb |
| 20260510092326 | 47 | 22 | 0.0 | 0.0 | 0.00 | 0.00 | 0.00 | 66 | 1019.9 |
| 20260510091333 | 47 | 22 | 0.0 | 0.0 | 0.00 | 0.00 | 0.00 | 65 | 1019.7 |
| 20260510090331 | 47 | 22 | 0.0 | 0.0 | 0.00 | 0.00 | 0.00 | 63 | 1019.4 |
| 20260510085316 | 49 | 22 | 0.0 | 1.0 | 0.00 | 0.00 | 0.00 | 59 | 1019.3 |
| 20260510084315 | 49 | 21 | 0.0 | 1.0 | 0.00 | 0.00 | 0.00 | 58 | 1019.1 |
| 20260510083527 | 50 | 22 | 0.0 | 0.0 | 0.00 | 0.00 | 0.00 | 57 | 1019.0 |
| 20260510082314 | 51 | 21 | 1.0 | 3.0 | 0.00 | 0.00 | 0.00 | 55 | 1018.8 |
| 20260510081318 | 51 | 11 | 2.0 | 4.0 | 0.00 | 0.00 | 0.00 | 55 | 1018.6 |
| 20260510080335 | 51 | 16 | 1.0 | 3.0 | 0.00 | 0.00 | 0.00 | 55 | 1018.5 |
| 20260510075313 | 52 | 28 | 2.0 | 5.0 | 0.00 | 0.00 | 0.00 | 56 | 1018.4 |
| 20260510074318 | 52 | 349 | 2.0 | 3.0 | 0.00 | 0.00 | 0.00 | 55 | 1018.3 |
| 20260510073335 | 52 | 26 | 2.0 | 3.0 | 0.00 | 0.00 | 0.00 | 55 | 1018.1 |
| 20260510072315 | 53 | 16 | 3.0 | 4.0 | 0.00 | 0.00 | 0.00 | 55 | 1018.1 |
| 20260510071321 | 53 | 6 | 0.0 | 2.0 | 0.00 | 0.00 | 0.00 | 55 | 1018.1 |
| 20260510070320 | 53 | 340 | 1.0 | 2.0 | 0.00 | 0.00 | 0.00 | 55 | 1017.9 |
| 20260510065325 | 54 | 18 | 1.0 | 2.0 | 0.00 | 0.00 | 0.00 | 55 | 1017.6 |
| 20260510064323 | 54 | 11 | 2.0 | 4.0 | 0.00 | 0.00 | 0.00 | 55 | 1017.7 |
| 20260510063320 | 54 | 18 | 2.0 | 5.0 | 0.00 | 0.00 | 0.00 | 56 | 1017.4 |
| 20260510062324 | 54 | 27 | 3.0 | 6.0 | 0.00 | 0.00 | 0.00 | 56 | 1017.3 |
| 20260510061316 | 54 | 20 | 4.0 | 6.0 | 0.00 | 0.00 | 0.00 | 58 | 1017.1 |
| 20260510060333 | 53 | 16 | 3.0 | 5.0 | 0.00 | 0.00 | 0.00 | 58 | 1017.1 |
| 20260510055333 | 52 | 18 | 3.0 | 4.0 | 0.00 | 0.00 | 0.00 | 64 | 1017.1 |
| 20260510054340 | 51 | 277 | 0.0 | 1.0 | 0.00 | 0.00 | 0.00 | 67 | 1017.2 |
| 20260510053358 | 52 | 159 | 0.0 | 0.0 | 0.00 | 0.00 | 0.00 | 69 | 1017.3 |
| 20260510052337 | 54 | 135 | 0.0 | 6.0 | 0.00 | 0.00 | 0.00 | 65 | 1016.6 |
| 20260510051345 | 52 | 18 | 4.0 | 6.0 | 0.00 | 0.00 | 0.00 | 64 | 1016.1 |
| 20260510051028 | 53 | 18 | 0.0 | 3.0 | 0.00 | 0.00 | 0.00 | 71 | 1015.5 |
| 20260510043354 | 53 | 25 | 0.0 | 1.0 | 0.00 | 0.00 | 0.00 | 71 | 1015.3 |
| 20260510042400 | 54 | 24 | 0.0 | 1.0 | 0.00 | 0.00 | 0.00 | 72 | 1015.2 |
| 20260510041338 | 54 | 24 | 1.0 | 1.0 | 0.00 | 0.00 | 0.00 | 73 | 1014.8 |
| 20260510040334 | 55 | 25 | 1.0 | 1.0 | 0.00 | 0.00 | 0.00 | 72 | 1014.7 |
| 20260510035341 | 55 | 25 | 0.0 | 0.0 | 0.00 | 0.00 | 0.00 | 73 | 1014.5 |
| 20260510034348 | 56 | 25 | 0.0 | 1.0 | 0.00 | 0.00 | 0.00 | 73 | 1014.3 |
| 20260510033346 | 56 | 25 | 1.0 | 2.0 | 0.00 | 0.00 | 0.00 | 74 | 1014.2 |
| 20260510032523 | 55 | 25 | 1.0 | 2.0 | 0.00 | 0.00 | 0.00 | 77 | 1014.2 |
| 20260510031339 | 54 | 25 | 1.0 | 2.0 | 0.00 | 0.00 | 0.00 | 80 | 1014.0 |
| 20260510030336 | 55 | 25 | 0.0 | 2.0 | 0.00 | 0.00 | 0.00 | 80 | 1013.9 |
| 20260510025405 | 55 | 11 | 1.0 | 2.0 | 0.00 | 0.00 | 0.00 | 80 | 1013.7 |
| 20260510024333 | 55 | 11 | 1.0 | 1.0 | 0.00 | 0.00 | 0.00 | 78 | 1013.5 |
| 20260510023350 | 56 | 12 | 1.0 | 2.0 | 0.00 | 0.00 | 0.00 | 75 | 1013.4 |
| 20260510022336 | 57 | 11 | 0.0 | 1.0 | 0.00 | 0.00 | 0.00 | 72 | 1013.2 |
| 20260510021343 | 58 | 9 | 0.0 | 1.0 | 0.00 | 0.00 | 0.00 | 69 | 1013.1 |
| 20260510020341 | 60 | 9 | 0.0 | 1.0 | 0.00 | 0.00 | 0.00 | 65 | 1012.8 |
| 20260510015346 | 61 | 9 | 1.0 | 1.0 | 0.00 | 0.00 | 0.00 | 62 | 1012.7 |
| 20260510014339 | 62 | 9 | 0.0 | 0.0 | 0.00 | 0.00 | 0.00 | 59 | 1012.6 |
| 20260510013357 | 64 | 9 | 0.0 | 1.0 | 0.00 | 0.00 | 0.00 | 56 | 1012.4 |
| 20260510012337 | 65 | 9 | 0.0 | 2.0 | 0.00 | 0.00 | 0.00 | 54 | 1012.3 |
| 20260510011344 | 66 | 9 | 1.0 | 2.0 | 0.00 | 0.00 | 0.00 | 52 | 1012.1 |
| 20260510010342 | 67 | 3 | 1.0 | 3.0 | 0.00 | 0.00 | 0.00 | 51 | 1012.0 |
| 20260510005349 | 69 | 360 | 2.0 | 6.0 | 0.00 | 0.00 | 0.00 | 48 | 1011.8 |
| 20260510004354 | 70 | 28 | 1.0 | 5.0 | 0.00 | 0.00 | 0.00 | 47 | 1011.6 |
| 20260510003349 | 70 | 4 | 2.0 | 5.0 | 0.00 | 0.00 | 0.00 | 47 | 1011.4 |
| 20260510002410 | 71 | 293 | 4.0 | 9.0 | 0.00 | 0.00 | 0.00 | 45 | 1011.2 |
| 20260510001334 | 70 | 15 | 3.0 | 7.0 | 0.00 | 0.00 | 0.00 | 46 | 1011.1 |
| 20260510000333 | 71 | 349 | 2.0 | 9.0 | 0.00 | 0.00 | 0.00 | 46 | 1010.9 |
| 20260509235338 | 71 | 318 | 5.0 | 8.0 | 0.00 | 0.00 | 0.00 | 44 | 1010.7 |
| 20260509234343 | 71 | 352 | 3.0 | 11.0 | 0.00 | 0.00 | 0.00 | 41 | 1010.5 |
| 20260509233338 | 73 | 21 | 4.0 | 9.0 | 0.00 | 0.00 | 0.00 | 41 | 1010.4 |
| 20260509232341 | 74 | 26 | 3.0 | 7.0 | 0.00 | 0.00 | 0.00 | 41 | 1010.2 |
| 20260509231347 | 75 | 277 | 1.0 | 5.0 | 0.00 | 0.00 | 0.00 | 38 | 1009.9 |
| 20260509230347 | 75 | 229 | 1.0 | 4.0 | 0.00 | 0.00 | 0.00 | 37 | 1009.7 |
| 20260509225333 | 76 | 271 | 1.0 | 3.0 | 0.00 | 0.00 | 0.00 | 39 | 1009.6 |
| 20260509224343 | 76 | 328 | 1.0 | 3.0 | 0.00 | 0.00 | 0.00 | 38 | 1009.5 |
| 20260509223341 | 76 | 290 | 1.0 | 3.0 | 0.00 | 0.00 | 0.00 | 38 | 1009.5 |
| 20260509222348 | 75 | 276 | 0.0 | 5.0 | 0.00 | 0.00 | 0.00 | 38 | 1009.4 |
| 20260509221350 | 75 | 18 | 2.0 | 5.0 | 0.00 | 0.00 | 0.00 | 39 | 1008.9 |
| 20260509220300 | 75 | 23 | 2.0 | 6.0 | 0.00 | 0.00 | 0.00 | 36 | 1009.3 |
| 20260509214343 | 76 | 298 | 1.0 | 4.0 | 0.00 | 0.00 | 0.00 | 36 | 1009.3 |
| 20260509213341 | 76 | 304 | 2.0 | 6.0 | 0.00 | 0.00 | 0.00 | 35 | 1009.2 |
| 20260509212348 | 76 | 308 | 4.0 | 11.0 | 0.00 | 0.00 | 0.00 | 35 | 1009.1 |
| 20260509211334 | 76 | 270 | 4.0 | 6.0 | 0.00 | 0.00 | 0.00 | 36 | 1008.9 |
| 20260509210353 | 77 | 255 | 5.0 | 18.0 | 0.00 | 0.00 | 0.00 | 37 | 1008.3 |
| 20260509205338 | 79 | 355 | 3.0 | 7.0 | 0.00 | 0.00 | 0.00 | 34 | 1008.1 |
| 20260509204346 | 81 | 270 | 7.0 | 14.0 | 0.00 | 0.00 | 0.00 | 30 | 1007.5 |
| 20260509203403 | 82 | 271 | 1.0 | 10.0 | 0.00 | 0.00 | 0.00 | 32 | 1007.4 |
| 20260509202347 | 82 | 294 | 4.0 | 10.0 | 0.00 | 0.00 | 0.00 | 30 | 1007.4 |
| 20260509201336 | 82 | 277 | 5.0 | 12.0 | 0.00 | 0.00 | 0.00 | 28 | 1007.4 |
| 20260509200353 | 83 | 285 | 8.0 | 15.0 | 0.00 | 0.00 | 0.00 | 29 | 1007.5 |
| 20260509195333 | 83 | 283 | 8.0 | 14.0 | 0.00 | 0.00 | 0.00 | 30 | 1007.5 |
| 20260509194340 | 83 | 260 | 6.0 | 12.0 | 0.00 | 0.00 | 0.00 | 31 | 1007.6 |
| 20260509193400 | 83 | 272 | 2.0 | 4.0 | 0.00 | 0.00 | 0.00 | 34 | 1007.6 |
| 20260509192344 | 82 | 274 | 3.0 | 11.0 | 0.00 | 0.00 | 0.00 | 31 | 1007.8 |
| 20260509192247 | 83 | 233 | 6.0 | 14.0 | 0.00 | 0.00 | 0.00 | 31 | 1008.1 |
| 20260509185257 | 82 | 274 | 9.0 | 16.0 | 0.00 | 0.00 | 0.00 | 29 | 1008.3 |
| 20260509184028 | 82 | 278 | 9.0 | 12.0 | 0.00 | 0.00 | 0.00 | 29 | 1008.2 |
| 20260509182346 | 82 | 281 | 3.0 | 17.0 | 0.00 | 0.00 | 0.00 | 29 | 1008.4 |
| 20260509181337 | 82 | 285 | 5.0 | 14.0 | 0.00 | 0.00 | 0.00 | 32 | 1008.3 |
| 20260509180358 | 81 | 286 | 3.0 | 11.0 | 0.00 | 0.00 | 0.00 | 32 | 1008.3 |
| 20260509174337 | 82 | 273 | 2.0 | 11.0 | 0.00 | 0.00 | 0.00 | 30 | 1008.4 |
| 20260509173335 | 81 | 227 | 7.0 | 12.0 | 0.00 | 0.00 | 0.00 | 27 | 1008.5 |
| 20260509172339 | 81 | 249 | 7.0 | 10.0 | 0.00 | 0.00 | 0.00 | 30 | 1008.6 |
| 20260509171341 | 80 | 228 | 4.0 | 9.0 | 0.00 | 0.00 | 0.00 | 34 | 1008.6 |
| 20260509170340 | 79 | 257 | 7.0 | 11.0 | 0.00 | 0.00 | 0.00 | 34 | 1008.7 |
| 20260509165348 | 79 | 193 | 5.0 | 10.0 | 0.00 | 0.00 | 0.00 | 34 | 1008.7 |
| 20260509164354 | 78 | 212 | 5.0 | 11.0 | 0.00 | 0.00 | 0.00 | 34 | 1008.8 |
| 20260509163351 | 78 | 270 | 6.0 | 13.0 | 0.00 | 0.00 | 0.00 | 34 | 1008.9 |
| 20260509162351 | 78 | 256 | 5.0 | 8.0 | 0.00 | 0.00 | 0.00 | 34 | 1008.8 |
| 20260509161332 | 78 | 271 | 4.0 | 8.0 | 0.00 | 0.00 | 0.00 | 35 | 1008.9 |
| 20260509160347 | 77 | 264 | 3.0 | 6.0 | 0.00 | 0.00 | 0.00 | 37 | 1008.8 |
| 20260509155335 | 76 | 250 | 3.0 | 6.0 | 0.00 | 0.00 | 0.00 | 37 | 1008.8 |
| 20260509154348 | 75 | 266 | 1.0 | 6.0 | 0.00 | 0.00 | 0.00 | 38 | 1008.9 |
| 20260509153349 | 75 | 278 | 4.0 | 7.0 | 0.00 | 0.00 | 0.00 | 37 | 1009.1 |
| 20260509152335 | 75 | 243 | 2.0 | 6.0 | 0.00 | 0.00 | 0.00 | 40 | 1008.9 |
| 20260509151302 | 74 | 210 | 2.0 | 3.0 | 0.00 | 0.00 | 0.00 | 44 | 1009.1 |
| 20260509145331 | 72 | 208 | 2.0 | 4.0 | 0.00 | 0.00 | 0.00 | 45 | 1009.2 |
| 20260509144337 | 72 | 229 | 2.0 | 5.0 | 0.00 | 0.00 | 0.00 | 49 | 1009.1 |
| 20260509143356 | 69 | 229 | 0.0 | 2.0 | 0.00 | 0.00 | 0.00 | 54 | 1009.1 |
| 20260509142343 | 68 | 215 | 0.0 | 3.0 | 0.00 | 0.00 | 0.00 | 57 | 1009.1 |
| 20260509141335 | 66 | 246 | 1.0 | 5.0 | 0.00 | 0.00 | 0.00 | 61 | 1009.1 |
| 20260509140353 | 65 | 181 | 1.0 | 5.0 | 0.00 | 0.00 | 0.00 | 65 | 1009.2 |
| 20260509135338 | 64 | 188 | 2.0 | 4.0 | 0.00 | 0.00 | 0.00 | 66 | 1009.2 |
| 20260509134346 | 62 | 201 | 2.0 | 5.0 | 0.00 | 0.00 | 0.00 | 69 | 1009.3 |
| 20260509133344 | 62 | 198 | 2.0 | 5.0 | 0.00 | 0.00 | 0.00 | 72 | 1009.3 |
| 20260509132802 | 61 | 255 | 2.0 | 3.0 | 0.00 | 0.00 | 0.00 | 67 | 1009.1 |
| 20260509131346 | 63 | 250 | 2.0 | 3.0 | 0.00 | 0.00 | 0.00 | 66 | 1008.9 |
| 20260509130343 | 62 | 359 | 0.0 | 0.0 | 0.00 | 0.00 | 0.00 | 78 | 1008.7 |
| 20260509125347 | 61 | 360 | 0.0 | 0.0 | 0.00 | 0.00 | 0.00 | 85 | 1008.7 |
| 20260509124336 | 58 | 360 | 0.0 | 0.0 | 0.00 | 0.00 | 0.00 | 93 | 1008.7 |
| 20260509123333 | 55 | 360 | 0.0 | 0.0 | 0.00 | 0.00 | 0.00 | 95 | 1008.8 |
| 20260509122341 | 51 | 360 | 0.0 | 0.0 | 0.00 | 0.00 | 0.00 | 96 | 1008.7 |
| 20260509121341 | 49 | 8 | 0.0 | 0.0 | 0.00 | 0.00 | 0.00 | 95 | 1008.6 |
| 20260509120341 | 47 | 8 | 0.0 | 0.0 | 0.00 | 0.00 | 0.00 | 96 | 1008.4 |
| 20260509115348 | 45 | 8 | 0.0 | 2.0 | 0.00 | 0.00 | 0.00 | 95 | 1008.4 |
| 20260509114335 | 44 | 8 | 2.0 | 2.0 | 0.00 | 0.00 | 0.00 | 95 | 1008.2 |
| 20260509113353 | 44 | 262 | 0.0 | 0.0 | 0.00 | 0.00 | 0.00 | 93 | 1008.1 |
| 20260509112803 | 44 | 263 | 0.0 | 0.0 | 0.00 | 0.00 | 0.00 | 93 | 1007.9 |
| 20260509111341 | 44 | 263 | 0.0 | 0.0 | 0.00 | 0.00 | 0.00 | 92 | 1008.0 |
| 20260509110338 | 45 | 262 | 0.0 | 0.0 | 0.00 | 0.00 | 0.00 | 92 | 1007.9 |
| 20260509105344 | 46 | 262 | 0.0 | 0.0 | 0.00 | 0.00 | 0.00 | 91 | 1007.7 |
| 20260509104352 | 46 | 263 | 0.0 | 0.0 | 0.00 | 0.00 | 0.00 | 88 | 1007.8 |
| 20260509103348 | 47 | 263 | 0.0 | 0.0 | 0.00 | 0.00 | 0.00 | 88 | 1007.7 |
| 20260509102332 | 49 | 263 | 0.0 | 0.0 | 0.00 | 0.00 | 0.00 | 86 | 1007.9 |
| 20260509101331 | 51 | 263 | 0.0 | 1.0 | 0.00 | 0.00 | 0.00 | 85 | 1007.8 |
| 20260509100351 | 52 | 263 | 1.0 | 2.0 | 0.00 | 0.00 | 0.00 | 86 | 1007.9 |
| 20260509095335 | 52 | 265 | 2.0 | 3.0 | 0.00 | 0.00 | 0.00 | 87 | 1008.0 |
| 20260509094330 | 52 | 264 | 2.0 | 4.0 | 0.00 | 0.00 | 0.00 | 87 | 1008.1 |
| 20260509093347 | 52 | 266 | 2.0 | 4.0 | 0.00 | 0.00 | 0.00 | 88 | 1008.0 |